Regional Weather Roundup
Issued by NWS Wakefield, VA

Home | Current Version | Previous Version | Graphics & Text | Print | Product List | Glossary On
Versions: 1 2 3 4 5 6 7 8 9 10 11 12 13 14 15 16 17 18 19 20 21 22 23 24 25 26 27
000
ASUS41 KAKQ 260915
RWRAKQ

REGIONAL WEATHER ROUNDUP
NATIONAL WEATHER SERVICE WAKEFIELD VA
500 AM EDT FRI AUG 26 2016

Note: "fair" indicates few or no clouds below 12,000 feet with no
significant weather and/or obstructions to visibility. * = Denotes
station may not report precipitation (e.g., rain,snow,etc.),
thunder or fog.

VAZ042-051-052>054-056-261000-
NORTHERN VIRGINIA

CITY           SKY/WX    TMP DP  RH WIND       PRES   REMARKS
WASH NATIONAL  FAIR      78  74  87 S3        30.02R
DULLES         FAIR      74  72  93 CALM      30.03R
FORT BELVOIR   FAIR      73  72  94 CALM      30.02R FOG
QUANTICO       FAIR      78  73  84 CALM      30.03R
FREDERICKSBRG* FAIR      74  74 100 CALM      30.01S
STAFFORD*      FAIR      70  69  97 CALM      30.06S FOG
WARRENTON      FOG       72  68  86 CALM      30.03R VSB 1/4
CULPEPER*      FAIR      71  71 100 CALM      30.04R FOG
MANASSAS*      FAIR      73  73 100 CALM      30.03R
LEESBURG*      FAIR      77  77 100 SW9       30.04R
WINCHESTER     FAIR      73  70  88 CALM      30.05R
FRONT ROYAL*   FAIR      73  72  94 S6        30.05R
LURAY*         FAIR     N/A N/A N/A CALM      30.07R
$$

VAZ048-049-060>072-079>083-261000-
CENTRAL AND SOUTH CENTRAL VIRGINIA

CITY           SKY/WX    TMP DP  RH WIND       PRES   REMARKS
RICHMOND       FAIR      73  69  87 S6        30.04S
CHESTERFIELD*  FAIR      73  57  56 S3        30.06S
PETERSBURG*    FAIR      73  73 100 CALM      30.06S
HANOVER        FAIR      74  69  85 S5        30.05S
TAPPAHANNOCK*  FAIR      74  74 100 S6        30.04S
QUINTON*       FAIR      74  71  91 S8        30.04S
CHARLOTTSVILLE FAIR      76  72  87 CALM      30.05S
GORDONSVILLE*  FAIR      72  72 100 CALM      30.04R FOG
ORANGE*          N/A     73  73 100 CALM      30.05S
LOUISA*        FAIR      77  75  94 CALM      30.04R FOG
BUMPASS*       FAIR      72  72 100 CALM      30.04R
FARMVILLE*     FOG      N/A N/A N/A CALM      30.05S VSB 1/2
CREWE*         FAIR      71  71 100 CALM      30.06S
FORT PICKETT*  FAIR      72  72  98 SW3       30.06S
CHASE CITY*    FAIR      71  70  95 CALM      30.07F
CLARKSVILLE*   FAIR      72  72 100 CALM      30.07S
SOUTH HILL*    FAIR      70  69  97 SW3       30.13S
LAWRENCEVILLE* FAIR      71  70  97 CALM      30.06F
EMPORIA*       MOCLDY    70  68  94 SE3       30.07F
$$

VAZ088>098-261000-
SOUTHEAST VIRGINIA

CITY           SKY/WX    TMP DP  RH WIND       PRES   REMARKS
NORFOLK        FAIR      75  68  78 SW12      30.06S
VIRGINIA BEACH MOCLDY    79  68  69 SW9       30.06S
NORFOLK NAVAL  FAIR      76  67  73 SW8       30.07S
WEST POINT*    FAIR      76  70  81 S5        30.06S
SALUDA*        FAIR      75  72  88 SW8       30.03S
NEWPORT NEWS   FAIR      76  69  79 SW8       30.06S
LANGLEY AFB    MOCLDY    77  68  75 SW13      30.05F
FORT EUSTIS    FAIR      76  69  80 VRB1      30.03F
WILLIAMSBURG*  FAIR      77  72  83 SW5       30.06S
HR EXEC AP*    FAIR      73  66  78 SW5       30.09F
FRANKLIN*      FAIR      73  67  83 S5        30.07F
US460-WAKEFLD  FAIR      74  68  81 S5        30.06S
$$

VAZ020-022-025-037-045-261000-
WEST CENTRAL AND SOUTHWEST VIRGINIA

CITY           SKY/WX    TMP DP  RH WIND       PRES   REMARKS
STAUNTON*      FAIR      68  67  97 SW3       30.11S
WAYNESBORO*    FAIR      73  69  88 W6        30.12S
HOT SPRINGS VA FAIR      69  69 100 W14       30.25F
LYNCHBURG      MOCLDY    71  71 100 CALM      30.10S FOG
DANVILLE       FAIR      72  71  97 W3        30.09S
SOUTH BOSTON*  FAIR      71  70  95 CALM      30.07F
MARTINSVILLE   MOCLDY    67  66  97 CALM      30.14S
ROANOKE        FAIR      74  71  91 NW6       30.14S
BLACKSBURG     FOG       68  68 100 CALM      30.22S VSB 1/2
DUBLIN*        FAIR      70  69  99 CALM      30.21S
MARION*        FOG       66  65  96 SW5       30.25F VSB 3/4
HILLSVILLE*    FAIR      68  68  99 CALM      30.22F
RICHLANDS*     FAIR      70  70 100 CALM      30.25S
WISE*          FOG       68  68 100 CALM      30.25S VSB 1/4
ABINGDON*      FAIR      69  69 100 E6        30.21S FOG
$$

MDZ021>025-VAZ099-100-261000-
SOUTHERN MARYLAND AND THE DELMARVA PENINSULA

CITY           SKY/WX    TMP DP  RH WIND       PRES   REMARKS
PATUXENT RIVER FAIR      76  70  82 SW6       30.01S
BAY BRIDGE APT MOCLDY    79  73  83 SW5       30.01R
LEONARDTOWN    FAIR      75  70  83 SW5       30.04S
DOVER          FAIR      75  75 100 S9        30.00R
GEORGETOWN     FAIR      72  70  93 SW5       30.03S
EASTON         FAIR      78  77  95 SW5       30.05S
CAMBRIDGE      MOCLDY    73  72  94 CALM      30.01F
SALISBURY      FAIR      72  71  97 S5        30.03S
OCEAN CITY     FAIR      78  71  79 SW9       30.03F
WALLOPS ISLAND FAIR      75  67  76 SW6       30.04F
ACCOMACK*      FAIR      74  69  82 S7        30.04S
$$

NCZ012>017-030>032-261000-
NORTH CENTRAL AND EASTERN NORTH CAROLINA

CITY           SKY/WX    TMP DP  RH WIND       PRES   REMARKS
ROANOKE RAPIDS PTSUNNY   70  68  94 SW5       30.07F
RALEIGH        FAIR      73  70  90 SW7       30.09S
ELIZABETH CITY FAIR      72  69  90 S3        30.08F
AHOSKIE*       FAIR      71  67  89 CALM      30.08S
EDENTON*       FAIR      78  69  73 SW8       30.09F
CURRITUCK*       N/A     72  71  98 CALM      30.09S
KILL DEVIL HLS FAIR      76  71  85 CALM      30.08S
MANTEO         FAIR      77  70  80 W7        30.09S
CAPE HATTERAS  FAIR      73  65  75 SW5       30.09S
TARBORO*       FAIR      71  68  89 CALM      30.09S
GOLDSBORO      FAIR      72  72 100 S2        30.07F
WASHINGTON     FAIR      72  68  87 CALM      30.09F
GREENVILLE     FAIR      72  68  88 SW5       30.10F
NEW BERN       FAIR      70  68  93 CALM      30.10F
WILMINGTON     FAIR      71  68  90 CALM      30.09S
$$

VAZ048-261000-
ELSEWHERE

CITY           SKY/WX    TMP DP  RH WIND       PRES   REMARKS
HARRISBURG PA  MOCLDY    77  75  93 CALM      30.00S
BALTIMORE      MOCLDY    75  72  90 CALM      30.01R
ANNAPOLIS      MOCLDY    78  73  84 CALM      30.00R
ANDREWS AFB    MOCLDY    76  72  87 SW6       30.02R
PHILADELPHIA   MOCLDY    75  70  84 SW9       30.00S
HENDERSON NC   FAIR      69  67  93 SW5       30.09R
GREENSBORO     FAIR      74  71  91 W3        30.10F
ROCKY MOUNT    FAIR      72  70  93 S5        30.08F
$$

VAZ100-261000-
MARINE

STATION/POSITION TIME  TEMP    WIND        PRES    WAVE   SWELL
                       AIR SEA DIR/SP/G            HT/PER HT/PER
                 (UTC) (F)     (DEG/KT/KT) (MB)    (FT/S) (FT/S)
BRANDYWINE LGT   0800   74     220/ 15/ 17   N/A
CAPE MAY NJ      0800   74 75  190/  6/  9 1016.0F
LEWES DE         0800   75 73  210/  7/ 12 1016.1F
OCEAN-CITY-INLET 0800   77 73  240/ 11/ 14 1017.3F
WACHAPREAGUE VA  0800   77 80  220/  8/ 11 1017.5S
THOMAS POINT MD  0900   78 81  240/  9/ 10 1017.6R
GOOSES REEF MD   0800   81 82  220/ 10/ 12 1016.7F   1/ 2
COVE POINT MD    0800   79     250/ 14/ 18 1016.6F
SOLOMONS ISLAND  0800   79 83  240/  8/ 12   N/A
BISHOPS HEAD MD  0800   80 80  200/ 11/ 12 1016.8F
PINEY POINT MD   0800          230/ 10/ 11   N/A
POTOMAC MD       0800   80 83  240/ 14/ 17 1015.6F   2/ 3
CAMBRIDGE MD     0800   78 83  180/  4/  7 1015.5F
LEWISETTA VA     0800   78 82  230/  9/ 11 1016.1F
RAPPAHANNOCK LGT 0800          200/ 17/ 18 1017.8F
STINGRAY PT      0800   80 83  160/ 14/ 17 1017.4S   2/ 3
YORK RVR RNG VA  0800   79     240/ 13/ 16 1017.0S
YORKTOWN VA      0800   77 83  230/ 12/ 16 1016.9R
JAMESTOWN VA     0800   76 84  210/  8/ 12   N/A
DOMINION TERM VA 0800   78     230/ 14/ 17 1017.8R
KIPTOPEKE VA     0800      79  220/ 13/ 15   N/A
CHES BAY BRIDGE  0800   77 78  200/ 14/ 16 1017.7R
CAPE HENRY VA    0800   75     210/  8/ 12   N/A
WILLOUBY STN VA  0800   77     220/ 15/ 17   N/A
CAPE HENRY BUOY  0812      78                N/A     3/ 8
1ST LANDING BUOY 0800   78 78  240/ 14/ 17 1017.6S   2/ 3
CAPE CHARLES BUO 0826      77                N/A     3/ 8
OFFSHORE WE BUOY 0821      80                N/A     3/ 9
64NM E OF VA BCH 0850   80 80  220/ 12/ 14 1018.1F   3/ 8   2/ 8
DUCK PIER NC     0800   79 79  210/  8/ 10 1018.1R
44100 DUCK FRF   0805      79                N/A     2/ 9
44056 DUCK FRF   0811      78                N/A     2/ 9
OREGON INLET NC  0800   80 81  190/  8/  9 1018.8R
HATTERAS NC      0800   80 81  190/  3/  4 1018.5S
DIAMOND SHLS NC  0850   80 84  190/  2/  4 1018.7F   3/ 8   3/ 8
CAPE LOOKOUT NC  0900   80     200/  2/  2 1018.5F
$$




USA.gov is the U.S. government's official web portal to all federal, state and local government web resources and services.